RH
22 24 27 29 30 29 28 27 26 23 20 18 18 17 14 14 17 18 15 12 9 8 9 7 7 10 14 14 14 12 11 9 7 5 3 4 4 4 5 5 7 8 8 8 7 8 10 13 19 20 27 33 25 21 24 26 25 20 13 9 9 9 9 9 9 11 10 13 19 24 24 25 31 36 39 39 37 42 47 54 57 55 53 55 61 67 73 78
25 25 26 27 29 29 29 28 27 24 21 19 19 19 17 17 18 19 18 14 10 8 9 8 8 10 13 14 14 14 11 9 7 5 3 3 4 3 5 6 6 6 7 8 6 9 15 18 21 21 24 23 16 14 16 20 22 15 8 8 8 8 9 10 9 11 10 13 19 22 22 24 28 33 36 34 35 42 48 55 58 59 63 67 70 74 79 81
27 26 26 26 27 28 28 28 28 25 22 20 20 20 19 20 20 19 20 17 11 8 8 9 10 10 13 14 15 15 11 9 9 6 3 3 4 3 5 7 6 5 7 9 9 11 14 16 18 19 18 13 9 10 10 14 16 10 7 7 8 9 10 12 12 12 13 15 19 22 23 24 27 31 30 29 30 34 40 51 56 59 65 71 74 77 80 81
29 28 27 26 26 26 27 28 27 26 23 21 20 21 21 21 20 19 20 19 13 8 8 10 11 12 13 14 15 14 10 9 8 6 4 2 4 3 4 7 6 5 6 8 9 10 14 14 15 16 12 8 7 7 7 10 10 7 7 7 8 10 12 16 16 16 17 18 21 21 22 24 26 28 27 27 27 27 33 46 54 59 67 71 73 77 79 81
31 29 28 26 26 25 26 26 26 26 23 21 21 21 21 21 19 20 21 20 13 8 9 10 12 13 14 15 15 13 9 6 5 5 3 2 4 4 4 6 6 6 6 6 7 10 14 14 13 12 9 7 6 6 6 7 7 6 9 10 11 12 14 20 20 20 20 20 21 20 21 24 26 30 30 30 29 31 37 45 55 63 69 71 72 76 78 80
32 30 28 26 25 24 24 25 25 26 23 21 21 22 22 20 20 21 21 18 11 8 9 10 12 13 14 15 15 13 9 6 7 8 3 2 3 3 4 5 6 6 5 6 9 11 12 12 13 10 7 6 5 6 6 6 6 7 11 14 15 14 17 22 22 22 21 19 20 20 21 22 25 32 37 38 40 43 48 54 61 68 72 73 74 75 76 78
33 31 29 28 26 24 23 23 24 25 23 22 21 22 22 21 22 18 14 13 9 9 9 9 11 11 12 13 13 12 10 7 8 12 9 3 3 4 4 5 6 6 6 8 9 10 10 11 12 9 6 6 6 6 5 6 6 8 13 16 17 18 20 23 23 21 19 19 20 20 20 20 24 32 39 44 49 53 57 63 66 71 75 74 75 75 74 77
34 31 30 28 26 24 22 22 23 24 23 21 21 22 23 23 22 14 9 10 9 9 10 9 10 10 10 11 13 11 8 7 8 14 13 5 2 4 4 5 6 5 7 9 7 9 11 10 10 8 6 6 6 6 6 7 7 10 15 18 20 21 23 23 21 19 18 17 18 20 22 24 29 34 39 45 52 58 62 67 69 72 75 74 75 74 75 77
33 31 29 28 27 24 22 21 21 23 23 21 21 22 24 23 21 14 8 9 10 9 8 7 7 10 10 10 12 10 7 6 8 12 12 7 4 3 4 5 5 6 9 9 8 11 11 10 10 7 6 6 6 7 7 8 10 14 17 19 20 22 23 21 18 17 16 16 19 22 25 29 33 33 39 46 51 58 63 67 70 72 74 73 72 73 76 78
31 28 27 26 25 24 22 21 20 22 22 21 21 22 24 23 21 16 8 10 11 6 5 4 5 7 9 12 11 9 8 6 6 10 10 8 5 3 4 5 4 7 9 7 9 12 11 10 9 7 7 6 7 6 6 8 14 19 19 20 21 22 22 19 18 19 19 19 21 23 25 28 30 28 35 46 51 56 60 64 69 70 71 69 68 71 76 76
27 25 25 24 23 23 22 21 19 21 22 21 21 22 24 22 21 19 10 11 11 5 4 2 4 6 6 11 11 8 9 6 6 10 10 9 6 4 4 4 5 8 8 7 11 13 12 11 8 8 7 6 7 8 11 13 18 22 21 22 23 22 21 18 18 21 21 21 21 22 24 26 26 25 34 45 49 50 54 60 63 63 65 66 66 71 77 76
24 23 22 21 20 20 21 21 19 20 21 21 21 21 25 21 21 23 12 11 12 8 9 4 2 4 5 12 11 11 11 7 9 10 10 9 7 6 4 4 7 9 7 8 13 14 11 10 8 8 6 7 7 9 17 19 20 21 18 21 23 20 19 18 18 19 19 21 23 22 22 24 26 30 39 46 48 47 49 54 57 59 63 65 66 71 77 77
20 20 21 20 19 17 18 20 19 19 20 21 21 21 25 21 20 24 15 11 12 12 15 14 9 3 7 13 8 11 14 10 12 11 8 9 7 7 5 5 6 8 8 9 14 13 8 8 8 9 7 7 7 11 20 21 18 17 14 17 20 19 19 20 19 18 17 22 28 25 22 25 29 36 42 46 47 46 46 49 52 55 60 65 67 70 74 77
16 18 19 19 18 16 16 19 19 19 19 20 21 22 24 21 20 22 17 12 13 14 15 17 20 13 14 18 8 11 18 13 13 11 7 7 7 7 5 5 5 7 10 13 15 11 7 8 8 8 7 7 11 14 18 18 15 14 13 14 16 18 20 20 19 18 17 21 26 22 19 24 30 37 43 47 47 44 43 45 48 51 55 62 67 69 71 75
14 15 17 19 18 16 14 16 18 18 19 20 21 23 24 22 20 20 19 14 12 16 15 15 25 27 24 21 13 16 19 15 13 10 8 9 9 7 6 6 5 7 13 15 13 9 7 8 7 7 7 10 14 14 13 14 13 12 14 14 13 14 18 20 19 19 18 19 20 17 17 23 30 37 43 46 46 43 41 41 44 49 53 58 63 67 69 73
12 13 15 17 17 16 14 15 17 18 18 20 21 23 23 22 20 18 19 18 14 15 19 21 24 26 24 19 16 20 19 17 15 10 8 11 13 11 7 8 7 8 14 14 11 9 8 9 9 7 8 10 11 10 10 12 14 12 11 12 14 13 16 21 20 19 20 20 18 15 16 21 29 38 42 44 44 43 39 39 42 47 53 58 62 64 66 71
10 12 13 15 16 15 14 14 16 17 18 19 21 24 23 22 20 17 18 20 18 15 17 20 21 23 23 17 16 18 19 18 14 9 8 10 14 13 9 9 11 13 15 13 12 10 9 9 9 7 7 7 7 9 10 12 14 13 10 10 13 13 14 18 19 19 20 20 17 15 17 21 28 37 42 42 43 41 38 38 40 44 53 59 63 65 67 71
9 10 11 13 15 15 14 14 15 16 17 19 22 25 23 21 20 19 20 22 23 23 20 21 24 24 20 14 13 15 17 17 12 9 9 9 12 13 10 10 12 14 13 12 11 10 9 8 7 6 6 6 6 8 10 12 12 13 11 10 12 12 13 14 16 19 20 19 18 18 20 24 29 36 40 40 41 41 37 38 39 42 49 56 62 65 66 69
8 9 10 11 13 14 14 14 14 14 16 18 22 25 24 24 25 24 23 24 27 26 22 24 23 19 15 11 13 14 16 16 11 10 11 10 13 14 12 11 12 12 10 9 9 9 8 7 7 7 7 7 6 6 7 8 8 10 9 9 12 12 13 12 12 16 18 19 18 18 20 25 30 35 37 38 40 41 38 38 41 41 45 51 56 59 61 63
7 7 8 9 11 13 13 13 14 14 14 18 23 26 27 25 24 25 27 28 26 20 17 20 19 15 13 11 13 15 16 16 13 12 13 13 13 13 11 10 10 10 8 8 8 8 8 8 8 7 7 6 6 5 5 5 6 8 8 8 9 10 11 10 13 19 18 17 18 19 21 23 28 33 35 37 39 41 40 40 41 41 43 46 49 51 55 57
6 7 7 7 9 11 11 12 14 14 13 17 24 28 27 24 21 23 28 26 23 21 18 18 18 16 15 13 14 14 14 16 13 12 14 13 12 10 10 10 8 8 8 7 7 8 8 9 8 6 5 5 5 5 5 6 6 6 7 7 7 8 9 10 16 21 20 17 20 24 24 25 27 30 35 38 36 35 37 39 40 40 41 43 45 47 50 54
6 6 6 5 8 10 10 11 13 14 13 17 25 28 28 27 24 26 30 24 20 22 20 18 19 17 16 17 16 14 12 13 12 12 13 13 12 8 8 9 7 7 7 6 8 8 8 9 7 5 6 6 7 6 6 7 6 6 6 7 7 7 10 14 18 21 21 17 20 27 26 27 30 31 36 38 32 32 36 38 40 40 41 43 45 46 49 54
5 6 5 4 6 8 9 11 12 14 15 19 24 28 29 28 26 29 33 27 21 21 20 20 19 17 16 17 17 14 12 10 10 12 13 13 11 8 8 8 6 7 7 7 7 8 8 7 5 6 6 7 8 7 7 7 7 6 6 7 6 7 11 15 18 22 22 16 19 27 26 29 36 37 38 38 34 37 43 44 45 45 45 44 42 45 49 51
5 5 5 4 4 7 8 10 12 15 18 20 20 23 27 28 27 31 33 26 20 19 20 19 17 16 15 15 15 14 11 9 9 11 12 12 10 8 8 6 6 7 6 6 6 6 6 6 6 6 7 7 7 8 7 7 8 6 6 7 6 8 9 9 17 24 22 20 22 25 26 32 38 36 33 37 40 41 42 46 49 49 50 50 46 46 49 50
5 5 5 4 4 6 6 9 14 16 16 15 16 20 26 28 29 32 31 24 19 18 18 17 16 15 14 13 13 12 11 9 8 10 12 11 9 9 8 6 6 6 6 5 4 5 6 7 7 7 7 8 7 7 7 7 7 6 7 6 5 8 7 9 19 23 20 22 23 23 26 28 29 30 27 30 38 39 38 41 44 48 52 55 55 55 56 55
5 4 5 4 4 4 6 11 15 13 11 12 17 24 28 28 29 33 30 22 15 14 14 13 13 12 12 13 12 11 10 9 8 10 11 10 9 8 8 6 6 6 4 4 5 6 7 9 8 7 8 8 7 7 6 6 6 7 8 7 7 9 9 15 21 19 15 18 21 21 22 21 22 28 28 28 33 35 38 39 38 42 48 51 53 56 58 58
5 4 4 4 4 4 7 11 11 8 10 15 19 25 26 27 31 33 30 22 13 10 12 11 11 11 11 12 11 10 10 9 9 11 11 11 10 9 8 6 6 6 5 6 8 8 8 10 9 8 8 7 7 6 6 6 5 9 12 9 9 11 14 18 17 14 13 17 24 24 21 21 20 22 25 29 34 33 36 40 37 39 43 45 47 50 55 57
5 4 4 4 4 4 4 6 7 6 10 14 19 24 24 27 34 33 30 26 14 9 11 10 10 10 10 12 11 9 9 8 10 11 10 10 10 8 7 6 5 7 8 8 9 8 8 9 8 8 7 7 7 6 7 7 7 13 16 12 13 14 14 15 12 13 16 20 27 26 24 24 19 19 23 28 34 36 36 37 37 38 41 42 43 44 50 56
5 4 4 4 3 4 3 4 5 6 10 14 18 22 21 28 36 28 23 24 15 8 9 9 9 9 10 12 10 8 8 8 9 11 11 11 10 8 7 6 6 7 8 7 8 8 7 8 8 7 6 7 7 7 8 7 9 16 17 15 17 16 14 14 12 14 18 21 22 20 21 21 16 17 24 29 34 35 34 33 33 35 41 43 42 42 46 54
5 4 4 4 3 4 3 4 6 7 11 15 16 19 23 33 35 24 20 20 13 8 8 9 9 8 9 11 9 8 8 7 8 10 11 11 10 8 7 8 7 7 8 7 7 7 8 10 10 8 7 8 8 8 8 8 12 16 15 15 17 16 16 16 15 16 20 21 17 14 16 18 17 13 17 26 31 28 26 29 31 32 38 43 43 42 44 52
5 4 4 4 4 4 3 5 7 9 12 12 13 20 30 34 28 22 21 17 10 9 8 8 8 8 9 9 9 8 7 7 8 10 10 10 10 8 7 9 8 7 8 7 7 7 8 10 10 9 8 7 8 9 9 10 12 13 11 13 15 18 18 17 18 19 19 19 17 15 14 18 21 15 10 16 21 21 20 22 28 31 34 40 44 43 43 51
4 5 4 3 4 3 3 5 6 11 12 8 12 26 34 32 24 18 17 13 11 10 7 7 7 7 9 8 8 8 7 8 8 9 10 9 9 8 8 8 8 9 10 8 8 8 8 8 8 9 8 7 7 9 10 11 10 9 9 11 14 17 18 17 20 19 16 17 18 17 16 18 19 16 12 11 13 19 22 20 23 28 32 37 45 44 43 51
4 4 4 4 4 3 3 3 4 9 8 5 16 27 30 32 27 16 11 10 12 10 7 7 7 7 8 8 8 7 7 8 8 8 9 8 9 8 7 7 6 8 9 7 8 8 8 9 8 9 9 7 6 7 10 10 9 8 9 11 13 15 18 18 18 16 14 15 17 17 20 18 14 12 13 14 15 18 22 22 21 25 31 36 43 45 44 50
4 4 4 4 3 3 3 3 3 4 3 7 19 24 27 32 26 14 11 10 11 11 8 8 7 6 8 7 7 7 7 8 7 8 8 8 9 8 7 7 6 6 7 7 7 8 9 11 9 8 8 7 7 6 7 8 7 7 7 8 11 12 14 16 15 14 14 15 19 21 20 15 14 19 21 23 25 23 24 27 26 29 33 34 40 43 42 48
4 3 4 3 3 3 2 3 4 2 3 12 19 22 27 29 20 12 12 10 11 13 11 9 8 7 8 7 6 7 7 9 8 8 9 8 8 8 7 7 7 6 7 8 8 7 9 10 8 8 8 6 7 6 6 7 7 8 7 8 10 9 10 13 15 14 12 14 19 21 18 11 12 19 20 22 25 25 28 30 29 34 36 35 39 41 41 46
3 4 4 3 7 10 5 3 4 2 5 16 21 22 24 21 15 13 13 13 13 13 12 11 8 7 8 7 7 7 7 9 8 8 9 8 7 8 6 6 7 6 6 8 8 8 9 10 9 10 9 6 7 7 6 7 8 8 8 9 10 8 8 13 16 15 14 14 16 17 16 11 11 13 13 16 18 19 26 30 29 31 35 38 42 43 42 45
4 4 3 5 13 20 14 5 3 2 8 19 22 21 19 15 14 14 14 15 13 13 14 12 9 8 8 8 7 7 7 7 8 8 8 8 7 7 6 6 6 6 6 6 7 8 8 10 10 9 10 10 8 8 7 8 8 8 9 9 9 9 9 13 17 18 17 16 15 16 15 12 13 14 14 16 15 14 20 28 28 29 34 39 43 47 46 47
4 2 7 14 18 23 21 10 3 3 12 22 23 21 19 15 14 14 13 15 14 13 14 12 10 9 7 7 7 6 7 7 7 8 8 8 8 7 6 7 6 6 6 5 6 7 7 10 12 9 10 11 9 7 8 8 8 8 8 7 9 11 13 15 17 18 17 16 15 15 14 12 11 13 13 15 15 12 17 28 31 28 32 37 42 49 53 51
4 5 16 24 22 23 24 15 7 8 15 22 22 21 20 16 15 15 15 16 14 14 14 12 12 10 8 7 6 6 7 7 7 8 8 8 8 7 6 6 7 6 5 5 6 7 6 8 12 11 9 10 9 8 9 9 8 9 9 8 8 10 13 15 14 13 14 15 14 13 14 12 10 10 11 11 13 11 14 26 33 29 29 36 41 47 54 55
7 10 17 24 21 20 24 19 11 12 16 20 19 17 17 15 14 14 15 16 14 13 14 13 12 11 9 8 6 6 7 7 7 7 7 8 8 8 7 5 7 6 5 6 5 6 8 9 11 12 10 10 10 9 8 8 9 9 9 9 9 10 11 12 13 11 12 14 14 14 14 11 10 12 12 11 12 12 13 22 30 31 30 35 42 46 52 55
12 13 15 24 21 16 25 23 12 11 15 18 18 17 18 17 14 14 15 15 14 13 13 13 13 12 10 9 7 7 7 7 7 7 7 7 8 8 8 6 7 7 6 7 6 6 8 9 11 12 11 9 8 8 9 10 8 8 9 9 9 11 12 13 15 13 12 13 13 15 15 11 10 14 12 10 11 11 12 18 24 29 32 36 42 47 52 54
20 14 14 26 23 22 32 23 10 14 17 17 18 18 20 19 15 14 14 14 13 12 12 13 14 13 12 10 9 8 8 7 7 7 7 7 7 7 8 9 8 6 7 7 6 7 8 9 10 10 11 10 9 11 12 12 10 8 8 7 7 9 10 12 16 15 13 14 12 14 16 12 15 20 16 16 22 22 22 25 25 26 31 37 43 47 52 55
30 17 16 22 23 32 39 24 16 23 20 18 21 19 18 19 15 13 13 12 12 11 12 13 12 13 13 11 11 10 8 8 7 7 7 6 8 9 9 10 8 6 6 6 6 9 11 11 10 11 13 12 11 12 12 10 10 9 9 8 7 8 8 10 14 15 15 15 13 16 17 13 22 31 26 26 32 28 27 32 33 30 30 37 44 47 52 57
39 27 23 21 22 32 35 24 22 24 19 19 21 18 16 15 13 14 12 10 11 10 12 13 11 13 12 11 12 11 9 10 10 9 8 7 11 16 12 9 9 6 5 7 9 10 11 11 12 14 17 16 14 15 13 12 11 9 9 9 7 8 9 10 15 16 15 15 14 16 15 12 23 34 31 26 25 19 18 24 32 35 34 37 43 47 53 59
46 34 25 23 26 30 29 25 22 20 19 23 22 17 17 15 13 16 14 11 12 12 12 13 12 12 12 11 12 12 12 12 11 11 11 9 13 19 17 14 13 8 7 10 12 8 9 13 14 14 16 17 18 16 13 13 12 9 9 9 9 10 10 11 16 17 16 17 17 17 14 12 19 26 24 20 18 16 16 18 25 34 38 41 46 51 56 63
46 33 23 22 25 26 28 29 25 21 21 23 22 19 17 15 15 18 17 14 14 14 13 13 13 12 12 11 11 12 12 11 10 13 12 10 12 17 22 23 16 14 18 16 11 10 13 16 16 14 14 12 14 14 10 10 11 9 9 11 11 10 10 12 14 15 19 23 20 18 17 15 15 17 16 15 15 14 15 16 20 31 40 45 51 55 60 65
44 38 35 32 28 23 25 28 25 23 21 21 23 22 18 16 16 17 18 17 16 17 15 13 13 14 13 13 13 12 13 12 12 13 11 12 14 16 25 28 21 25 31 19 9 13 17 17 16 15 14 11 12 14 11 9 10 9 9 11 11 10 10 12 14 17 22 22 17 22 27 21 15 15 13 14 16 15 14 15 17 27 39 44 50 56 60 64
42 43 46 47 42 30 26 31 31 26 22 21 23 23 21 18 18 20 21 18 18 19 19 15 15 17 16 16 17 14 14 16 15 15 15 16 16 15 20 24 24 31 32 16 10 16 16 13 13 12 13 13 13 14 12 9 9 9 9 10 11 11 12 14 14 16 21 19 16 27 34 26 18 15 13 14 15 14 14 16 19 26 34 41 47 54 57 60
44 43 42 46 46 38 36 38 36 30 25 29 30 26 24 21 21 25 24 21 21 21 22 21 19 20 19 20 22 20 22 23 20 22 26 22 17 15 16 17 19 25 23 13 15 20 17 17 17 13 13 15 16 15 12 10 10 10 9 9 11 11 11 13 12 12 18 19 16 23 31 28 20 16 15 15 14 14 18 21 22 22 27 35 45 50 53 56
58 56 49 51 43 38 41 37 31 30 28 32 34 28 27 26 25 28 27 26 28 26 26 27 25 25 22 20 24 27 31 35 32 32 35 29 22 20 18 15 14 17 16 13 18 20 19 24 24 16 15 18 17 15 13 12 11 11 11 10 10 11 11 12 12 13 19 21 19 20 26 24 17 14 17 18 14 16 19 18 17 21 26 33 40 45 48 51
66 63 57 63 49 36 40 36 31 31 27 29 34 30 30 29 28 30 29 27 30 30 29 29 28 27 23 23 27 28 30 35 33 31 32 30 27 26 23 19 16 16 14 13 18 18 17 26 27 18 17 19 18 16 14 13 12 12 14 13 12 12 12 12 13 16 19 21 22 23 22 19 14 13 17 17 15 17 17 15 18 26 32 33 36 42 47 49
56 62 61 66 51 32 34 33 30 32 31 33 37 34 32 31 28 30 31 28 28 30 31 31 30 28 26 28 32 31 30 32 31 31 31 30 29 26 23 21 18 18 17 15 17 17 16 22 23 17 17 19 17 16 14 13 15 16 16 14 12 12 13 12 14 17 18 18 19 19 17 15 14 14 15 15 14 15 17 21 27 32 36 40 41 42 46 50
Wind_Speed
17 17 17 17 17 17 18 19 20 22 23 23 24 24 23 22 20 19 19 18 17 16 15 14 14 14 14 13 13 13 12 14 15 16 20 18 15 13 10 11 13 12 9 9 8 8 7 5 5 2 3 6 6 5 5 4 4 4 4 3 4 4 6 6 5 5 6 9 10 12 9 7 9 9 10 9 11 12 10 7 7 8 8 12 18 25 25 22
18 17 17 17 18 18 18 18 20 21 23 24 24 24 24 23 21 20 19 18 17 15 14 14 14 14 13 12 11 11 12 13 14 19 22 18 14 14 11 12 15 13 10 10 8 8 7 8 8 5 6 7 4 4 5 5 5 5 2 3 4 6 8 6 7 6 4 9 11 10 7 6 8 9 7 5 9 10 8 9 12 14 14 17 22 24 24 23
18 18 18 18 18 18 19 19 19 21 23 24 24 23 23 23 23 22 20 19 17 15 13 13 13 12 12 11 10 10 10 10 14 20 20 17 16 15 14 14 15 14 11 10 7 8 7 7 9 8 7 6 3 5 5 5 5 4 3 3 6 7 8 5 6 6 4 10 12 10 8 7 8 7 4 3 6 7 7 9 12 16 18 20 23 23 24 23
18 18 18 18 18 19 19 19 20 21 22 23 24 23 23 24 25 24 21 19 17 14 12 12 11 11 11 9 8 7 7 8 12 17 16 17 19 16 16 16 15 14 12 10 8 8 7 6 8 8 8 6 5 5 6 5 3 2 2 5 9 7 8 6 6 6 7 10 11 11 9 9 8 6 3 2 4 4 6 8 10 17 21 23 24 23 22 21
18 18 18 19 19 19 20 20 20 21 22 23 23 22 23 24 25 24 22 19 16 12 10 10 10 10 9 8 7 5 5 5 6 12 13 16 20 18 17 17 16 13 13 11 8 7 7 7 8 8 8 5 7 7 6 5 4 2 4 9 9 5 8 8 8 9 10 11 11 10 9 10 10 8 8 4 3 5 7 6 11 18 22 24 25 23 21 21
18 18 18 19 19 20 20 20 20 20 22 23 22 21 23 25 25 23 20 17 14 10 8 9 9 9 9 8 7 9 9 2 3 5 11 16 21 20 18 17 16 14 13 10 7 8 8 9 10 9 7 5 6 6 8 7 6 3 7 8 7 6 10 10 10 11 11 12 11 10 9 10 11 11 12 11 12 10 10 11 16 20 20 22 23 22 21 20
18 19 19 19 19 20 20 20 20 21 21 22 21 21 23 25 25 22 18 14 10 8 7 7 8 9 9 9 9 11 13 7 2 3 10 16 21 21 19 17 16 15 13 9 8 9 9 11 11 7 6 5 5 5 8 8 6 4 8 7 8 10 12 11 11 12 12 13 12 11 10 9 10 11 12 14 15 13 14 16 19 20 19 20 20 20 20 19
19 19 19 19 19 20 20 20 21 21 21 21 21 21 23 26 25 20 14 10 7 7 7 8 9 9 9 10 10 10 14 12 5 4 9 15 21 21 20 18 17 15 12 10 10 9 9 10 9 8 6 4 5 7 10 10 6 6 9 9 10 13 13 12 12 14 15 15 13 13 11 11 13 14 13 15 14 15 16 18 19 19 19 19 18 19 18 18
19 19 19 20 20 20 20 20 21 21 21 21 20 21 23 26 24 18 12 8 7 8 8 9 10 11 11 10 9 8 11 14 8 4 8 13 20 21 20 19 17 14 11 10 9 8 8 9 8 6 4 5 4 8 10 8 6 8 11 11 12 14 13 13 13 15 16 14 14 14 14 15 16 14 13 13 14 16 17 18 18 18 18 18 17 17 17 17
19 19 19 20 20 20 20 20 21 21 21 20 20 21 23 26 22 15 11 8 8 8 6 7 8 11 13 11 9 6 7 14 11 5 7 13 18 20 20 19 17 15 11 10 8 7 7 7 7 4 5 6 4 7 7 5 8 11 14 14 14 15 13 12 14 15 15 14 14 13 13 14 11 7 8 12 14 16 18 18 17 17 17 17 17 17 16 16
19 19 19 20 20 20 20 20 20 20 21 20 19 20 23 25 20 13 10 8 9 8 5 2 5 10 13 13 11 6 5 11 11 7 9 13 17 20 21 20 18 15 11 10 8 6 4 6 8 5 4 6 6 8 6 9 16 16 16 15 14 14 12 12 13 14 12 12 15 15 14 12 7 7 11 13 14 15 17 17 16 16 16 16 16 16 15 15
19 19 19 19 20 20 20 20 20 20 20 19 19 20 22 24 20 12 9 8 7 7 7 5 4 8 12 14 13 7 5 9 8 7 10 14 16 18 21 20 16 12 11 11 9 7 7 8 8 4 3 6 7 8 9 13 17 16 15 12 12 13 11 10 10 11 11 11 12 11 11 11 9 11 14 14 13 14 16 16 16 15 15 16 16 14 14 14
19 19 19 19 19 20 20 19 19 20 20 19 18 19 21 23 20 12 8 7 5 5 6 7 6 8 10 9 12 8 6 8 7 7 11 16 16 17 19 18 14 12 11 11 9 8 9 10 7 2 4 3 3 8 10 13 14 14 12 9 10 10 9 9 8 9 10 9 5 3 3 9 10 12 14 14 13 14 14 15 15 15 15 15 14 14 13 13
18 19 19 19 19 20 19 19 19 19 19 19 18 18 20 22 19 12 8 6 4 3 2 2 5 6 6 4 8 9 6 7 8 9 12 17 18 18 16 14 15 15 11 10 10 10 10 10 7 6 4 2 7 13 12 11 11 10 7 8 8 6 8 10 9 8 8 7 3 4 1 8 10 13 14 13 14 13 13 14 14 14 14 14 13 13 13 12
18 18 19 19 19 19 19 19 19 19 19 19 18 17 19 21 19 12 8 6 4 4 1 2 2 2 5 4 7 7 7 9 9 10 12 16 18 19 18 16 18 18 14 12 10 10 12 10 7 8 7 7 12 13 9 8 8 7 7 8 7 5 8 10 9 8 5 5 2 5 3 8 8 13 15 14 13 12 12 13 13 14 13 13 13 12 12 12
18 18 18 18 19 19 19 19 18 19 18 18 17 17 19 21 18 13 10 6 4 4 0 3 3 3 5 4 8 7 8 9 9 10 13 16 15 16 19 19 18 18 15 13 10 11 12 8 5 7 10 10 11 9 8 7 6 7 7 7 8 6 7 8 9 10 5 3 4 3 2 7 8 13 15 14 14 12 11 12 12 13 13 12 12 11 11 11
18 18 18 18 19 19 18 18 18 18 18 18 17 16 19 20 18 15 10 6 5 4 3 5 4 4 5 4 8 10 10 9 11 12 14 17 15 15 20 19 17 16 14 11 9 10 10 7 6 8 8 8 8 8 8 8 7 7 8 6 9 8 7 7 8 11 7 5 5 2 1 6 10 14 14 14 14 12 11 11 12 12 12 11 10 10 10 10
19 18 17 18 18 19 18 17 18 17 18 18 16 16 17 18 18 12 5 4 3 4 5 6 5 3 3 9 10 11 13 11 12 13 14 18 17 16 18 17 16 16 14 11 9 9 8 9 9 7 8 8 8 9 8 8 8 9 8 7 8 8 8 7 6 9 10 6 4 3 3 8 12 13 14 14 14 12 11 11 11 11 12 11 10 10 11 10
19 18 17 17 18 19 18 17 17 17 18 17 15 16 14 15 13 3 1 2 4 5 3 6 11 2 2 12 11 10 13 13 13 13 14 17 18 16 14 16 18 18 15 11 10 12 10 9 9 7 8 9 10 11 10 8 10 12 11 9 9 9 9 8 5 8 11 7 5 5 4 9 12 12 13 14 13 11 11 11 10 11 11 11 11 11 11 11
20 19 18 17 17 18 18 16 16 16 18 16 14 13 9 11 8 1 2 9 13 13 9 6 12 5 2 12 11 11 15 14 13 14 15 17 19 17 16 18 19 17 14 11 11 11 9 9 9 8 10 12 13 13 10 6 7 11 12 10 10 10 9 9 6 6 9 7 5 6 4 8 12 11 12 14 13 11 10 11 11 11 11 12 12 11 12 11
21 20 19 17 16 18 18 16 15 14 17 14 11 9 7 8 7 4 8 12 13 12 11 9 12 10 5 9 10 14 16 14 14 15 16 18 19 17 17 19 16 13 12 11 10 8 8 9 10 13 11 10 11 10 7 4 6 9 10 9 9 8 7 9 8 7 9 7 5 7 6 8 11 11 12 13 13 12 12 12 12 12 13 12 12 12 11 10
21 21 20 18 16 17 18 16 14 14 15 13 9 7 5 6 7 8 9 9 10 10 11 10 12 13 10 10 12 16 16 15 16 17 18 19 19 17 17 18 14 11 11 10 8 8 9 10 13 14 7 5 6 7 8 8 8 9 8 8 8 6 4 7 9 8 8 6 4 8 8 8 10 9 11 12 12 11 11 12 11 13 13 13 13 13 12 11
22 21 21 20 16 16 17 15 14 13 12 9 8 7 7 7 10 10 7 8 11 10 12 12 14 13 12 13 15 19 17 17 19 20 22 21 20 18 17 17 14 12 13 11 10 9 9 11 12 11 7 7 8 8 10 9 8 9 8 8 7 8 7 5 8 9 8 7 5 8 8 6 9 8 9 11 11 10 11 10 10 11 12 13 14 14 13 13
22 21 21 21 17 15 15 16 14 10 7 7 10 10 10 8 9 9 5 8 8 7 10 12 13 11 13 14 17 21 18 17 20 21 24 23 19 16 15 18 15 11 12 14 14 11 8 8 10 10 9 12 11 10 11 9 8 9 9 9 7 9 12 9 8 10 8 7 6 8 8 5 8 10 9 10 9 10 12 12 11 12 12 12 13 14 13 13
22 21 21 22 19 14 14 15 10 5 7 10 13 11 9 7 7 6 4 7 6 6 8 11 11 10 15 16 18 22 15 14 19 21 25 24 20 14 12 16 13 10 14 16 15 12 7 9 11 11 10 13 12 12 13 11 8 8 10 12 9 6 11 8 11 11 7 7 9 10 7 5 8 11 11 10 10 10 12 13 14 14 13 13 13 14 14 13
22 21 20 22 20 15 12 11 7 7 9 10 10 8 7 7 6 3 2 5 4 6 7 11 11 11 16 17 20 21 13 13 16 20 24 22 20 15 10 12 10 10 15 15 11 7 5 8 8 10 11 13 14 12 13 12 9 6 7 8 7 7 7 9 13 11 7 6 8 10 8 5 7 10 12 12 12 13 12 13 16 16 16 16 16 15 15 15
21 20 20 21 21 17 13 10 9 11 9 7 8 7 7 7 3 1 2 5 4 5 8 9 9 12 15 18 24 17 8 14 14 18 24 20 18 14 9 11 9 7 10 10 8 5 6 9 8 8 11 14 12 10 11 12 9 1 4 4 5 7 8 11 12 9 5 3 6 10 9 6 5 7 11 14 14 14 14 14 16 18 18 19 18 18 17 17
20 20 20 21 20 17 15 13 12 10 8 8 8 7 7 6 1 2 4 5 2 5 6 7 7 12 13 18 26 13 8 21 15 15 24 20 17 15 11 14 12 9 12 10 7 7 9 11 11 12 12 11 7 6 10 9 6 2 5 5 5 6 8 9 9 5 3 3 6 8 7 7 7 4 8 13 14 15 17 16 17 20 21 21 21 20 19 18
20 19 20 21 20 16 15 15 12 9 7 5 5 7 8 5 4 4 5 3 2 4 6 8 9 12 13 17 23 12 10 19 13 14 23 18 16 13 8 12 14 11 15 13 6 8 8 7 9 12 11 7 5 8 8 4 2 5 7 8 7 5 5 4 5 3 3 6 8 9 9 7 7 5 7 10 12 14 16 16 18 22 23 23 23 23 22 20
19 18 20 22 20 16 15 14 11 9 7 4 4 6 7 6 6 6 5 2 1 4 6 8 9 13 17 17 16 13 12 13 11 18 21 17 18 13 5 7 10 9 13 13 6 6 7 3 4 6 3 7 12 11 6 4 8 11 9 8 7 5 4 2 2 2 4 7 7 8 10 8 7 5 6 8 11 13 13 14 16 22 25 24 24 24 24 22
19 17 19 22 21 16 14 12 9 8 8 6 3 4 5 7 5 6 5 1 1 5 7 8 9 13 19 17 13 13 13 11 14 19 17 14 16 12 7 7 8 8 10 10 6 7 8 6 5 3 3 10 14 10 6 8 13 11 7 7 6 4 4 4 3 4 6 6 3 3 7 9 9 6 5 6 9 12 11 11 15 21 25 26 26 25 25 24
19 18 19 21 21 17 14 11 8 7 9 6 3 4 6 6 6 7 4 3 2 6 7 8 10 13 18 18 13 14 13 11 15 18 14 12 11 10 10 9 9 9 9 10 9 9 10 8 8 7 6 10 12 8 6 8 10 8 6 7 6 4 5 5 5 5 7 4 3 2 5 8 8 8 10 9 7 9 10 9 13 19 25 27 27 26 25 24
19 19 19 19 20 17 12 11 12 12 11 7 5 6 6 7 7 5 5 4 2 2 3 6 11 14 16 16 13 13 13 11 15 17 15 14 11 12 13 11 11 11 9 11 11 10 9 7 9 9 6 10 11 9 7 6 8 9 8 8 6 5 6 7 6 6 7 4 4 3 3 6 8 7 9 9 6 6 10 10 11 14 20 25 27 27 25 24
19 20 20 18 18 15 12 12 14 14 12 10 8 7 7 9 6 4 7 5 2 1 2 4 9 14 15 14 12 14 12 10 15 16 15 14 11 12 13 10 12 11 7 10 10 10 9 7 11 10 7 13 13 8 9 9 9 9 7 7 7 6 6 6 5 6 7 4 5 4 3 6 6 1 3 1 2 1 6 9 10 10 13 19 24 27 26 26
19 18 19 17 14 12 11 13 14 14 14 13 9 7 7 9 6 4 6 3 2 3 4 4 8 13 14 11 11 15 10 7 14 14 12 14 11 11 13 11 12 11 6 8 7 8 9 7 11 7 6 16 13 5 7 10 8 6 4 6 6 5 5 3 3 4 5 3 4 5 4 6 4 1 4 4 2 3 6 8 11 11 11 14 20 25 27 27
18 17 18 15 11 10 10 13 15 16 17 13 9 7 8 8 5 3 1 1 0 1 2 6 9 11 12 9 10 15 8 4 13 13 10 14 13 13 14 11 13 13 9 7 6 6 7 6 12 9 6 12 10 6 7 6 4 6 5 6 1 3 3 3 1 1 3 7 4 4 6 6 5 5 6 5 5 6 8 10 12 13 13 15 17 23 26 27
18 16 16 10 10 9 9 13 15 19 18 13 9 7 8 7 6 5 3 2 2 2 4 7 9 9 12 10 10 15 12 8 13 12 9 13 12 13 14 11 13 15 13 10 5 6 7 5 11 12 8 6 5 8 8 1 2 4 6 7 5 3 3 4 4 3 5 7 3 4 7 7 4 3 5 7 6 6 7 10 12 13 15 16 17 20 23 25
18 17 12 7 10 9 9 13 16 19 16 10 10 8 7 6 4 4 4 5 4 3 6 6 6 8 11 10 12 16 14 11 13 12 10 11 10 12 14 11 11 14 17 15 7 5 8 5 7 10 9 8 7 9 7 3 3 4 2 7 6 4 5 5 5 5 5 7 4 4 6 6 5 3 3 5 5 4 5 8 10 13 16 18 18 19 21 24
18 14 6 6 9 8 11 14 16 18 13 9 9 8 7 7 7 6 6 7 6 4 6 5 3 6 9 9 11 16 16 13 13 12 10 9 9 11 13 11 11 15 18 16 9 5 8 7 4 7 8 9 8 9 8 8 6 3 2 7 6 5 3 4 4 4 5 6 6 3 4 5 5 2 1 2 3 4 4 6 8 12 16 18 19 19 21 24
14 9 3 5 9 7 12 14 15 14 10 9 9 6 6 7 7 7 6 5 6 5 4 3 2 5 8 8 8 11 14 14 13 12 10 10 9 8 10 11 10 12 15 16 12 7 6 7 4 6 8 8 9 9 9 9 10 8 7 8 7 4 2 3 4 3 5 5 5 4 5 4 2 5 1 3 3 3 4 5 7 10 14 17 18 20 21 24
10 6 2 5 5 8 13 13 12 10 9 8 9 6 5 4 6 6 5 5 7 7 6 6 6 5 5 7 7 8 11 12 12 10 9 11 10 7 7 10 10 11 11 11 12 9 7 6 5 6 8 9 10 8 4 4 7 11 9 9 9 7 5 5 5 4 3 5 5 4 6 5 4 5 3 3 3 4 4 5 6 8 12 15 18 20 21 24
7 5 0 3 3 14 11 8 9 9 9 7 5 4 4 3 5 6 5 5 6 7 7 6 6 6 5 5 5 7 10 10 11 11 9 10 12 8 6 7 11 13 11 10 12 10 6 6 7 8 7 5 5 5 2 3 3 7 8 9 10 8 8 8 6 4 4 4 4 4 7 4 5 5 4 2 2 2 3 5 5 7 10 13 17 19 21 23
7 6 4 3 7 12 6 6 8 7 8 3 1 3 4 3 6 5 4 5 6 6 6 6 6 6 5 3 3 7 11 10 10 11 10 11 10 5 7 8 10 12 11 10 11 8 4 6 9 7 4 4 5 5 3 1 3 7 8 9 9 9 10 7 3 2 4 4 4 5 7 3 5 4 2 3 1 4 5 5 6 6 8 12 16 19 20 22
9 8 6 4 5 11 8 5 7 8 8 5 3 6 6 4 5 5 5 5 4 4 5 6 5 4 3 2 3 6 8 6 8 9 7 9 6 5 8 10 9 11 10 6 6 9 7 7 9 7 6 6 5 5 6 5 6 9 10 11 12 11 9 5 1 2 5 7 6 6 7 2 4 3 2 3 4 6 7 6 6 7 8 10 14 18 20 21
9 6 6 3 3 10 9 4 3 6 7 7 7 6 6 5 3 2 4 4 3 5 6 4 4 4 4 3 3 4 4 2 5 6 3 5 5 5 6 8 8 11 10 1 3 10 9 7 8 9 9 10 9 8 9 8 8 10 11 12 14 14 12 8 5 5 6 6 7 7 8 4 3 6 4 4 5 6 7 7 7 8 8 8 11 15 19 21
6 2 4 4 4 9 8 5 5 6 4 6 6 5 6 6 4 2 3 4 2 4 7 5 5 6 5 6 6 7 7 4 2 4 6 7 6 5 3 5 8 10 5 2 5 9 5 5 10 11 11 10 9 7 10 11 11 12 15 16 16 17 16 11 8 7 5 4 6 8 9 10 6 4 4 2 4 6 7 8 9 9 9 9 10 13 16 18
5 2 2 1 3 6 6 4 4 5 3 4 3 2 4 6 4 3 3 3 0 3 6 6 5 6 4 6 7 7 8 6 4 5 7 6 5 6 4 4 8 8 3 4 10 8 3 6 12 14 14 11 6 4 9 13 14 14 17 17 16 17 16 14 11 7 4 4 7 5 7 11 13 10 8 6 6 8 8 9 10 8 9 10 11 13 16 17
3 2 3 2 1 2 3 1 3 3 3 4 2 1 3 5 4 2 2 2 1 2 3 5 4 3 3 3 5 6 8 8 7 6 5 4 5 7 7 5 6 8 7 9 11 7 5 8 11 14 15 10 4 4 7 11 12 13 15 16 16 17 16 16 15 10 6 9 9 1 6 9 12 11 11 9 8 10 11 11 11 9 9 11 12 15 16 17
4 2 2 3 2 2 2 3 4 3 3 2 2 2 3 3 1 1 1 2 3 1 3 3 2 4 5 4 6 4 5 4 6 4 1 3 6 7 7 5 6 8 9 9 8 4 5 5 6 10 12 8 5 6 8 10 11 12 14 14 15 17 17 16 15 11 9 12 10 4 4 8 11 12 11 10 9 10 11 11 13 13 12 11 13 16 17 18
5 4 4 4 3 2 3 3 3 3 3 2 2 2 2 1 1 2 2 2 1 2 5 4 4 7 5 2 3 1 4 5 2 1 5 2 3 3 4 3 3 7 9 7 6 5 4 3 3 7 9 7 6 7 8 10 11 11 12 12 13 14 14 14 12 8 7 9 8 8 8 9 11 10 7 7 9 9 10 13 16 16 12 11 15 16 17 19
6 5 5 5 3 1 3 2 1 3 3 2 2 1 1 1 3 2 1 3 5 5 6 7 6 5 1 3 4 5 7 8 6 5 7 5 3 3 2 2 4 2 8 7 6 7 6 3 3 7 8 6 6 8 9 9 10 11 11 11 13 13 11 10 8 7 8 8 7 8 9 8 7 6 5 8 11 12 14 16 16 13 11 12 15 16 17 19
9 7 6 4 2 1 2 2 2 3 2 2 2 1 1 2 3 3 2 2 3 5 7 8 7 4 2 4 6 8 10 10 9 8 8 7 7 7 6 5 6 4 3 4 5 6 6 5 5 7 8 6 8 9 9 9 10 10 10 12 13 12 10 9 8 7 8 7 7 7 7 6 6 7 8 11 11 12 14 14 12 11 10 11 13 15 16 17
Wind_Direction
351 348 346 344 343 343 345 345 345 345 344 344 343 340 338 336 335 328 319 309 300 293 285 278 271 270 272 273 271 268 266 260 256 251 239 227 223 224 208 200 201 200 186 175 181 176 178 179 178 203 196 213 230 214 198 211 228 227 229 165 114 98 100 115 117 89 107 129 137 147 148 126 126 123 120 120 115 122 123 107 107 112 112 118 130 141 147 153
350 348 346 344 342 342 343 344 344 343 343 342 341 340 338 336 335 331 322 312 304 293 284 277 268 266 268 269 269 269 265 259 259 250 235 219 217 220 209 199 198 203 189 181 186 177 187 188 186 198 201 216 213 186 185 189 212 230 245 105 89 80 94 95 101 102 112 125 130 141 141 121 120 127 149 150 122 127 116 111 119 116 118 124 132 142 146 151
348 347 345 344 342 340 340 342 342 342 342 341 340 338 337 335 334 330 324 315 307 295 282 272 267 264 264 263 265 268 264 266 263 251 236 215 212 212 203 199 198 202 189 181 191 196 210 193 188 203 217 226 194 183 183 174 197 232 268 97 89 88 104 96 108 116 90 116 129 129 123 111 109 124 158 162 136 140 127 129 133 131 137 138 139 144 148 154
346 345 344 343 342 339 339 340 341 341 340 340 339 338 336 334 331 327 321 315 308 295 279 270 266 261 258 257 256 260 264 268 253 244 236 210 205 206 200 196 197 200 187 181 189 200 214 199 195 212 235 226 174 191 176 166 191 218 298 83 100 108 108 94 104 110 99 117 126 125 124 112 106 104 97 135 160 136 111 130 146 145 147 147 146 148 153 158
344 343 343 342 341 339 338 338 340 340 340 340 339 337 336 333 329 324 317 312 307 295 277 267 262 256 252 245 239 226 228 247 219 225 230 206 200 202 196 194 196 194 184 184 186 196 207 204 202 213 235 213 172 190 156 156 203 131 64 81 101 112 101 95 99 103 111 121 124 125 121 115 109 82 65 48 58 66 66 105 140 146 150 150 150 152 156 161
341 341 341 341 340 339 337 337 339 339 340 339 339 337 335 335 330 323 316 309 305 293 274 262 254 248 238 228 221 204 212 230 95 194 209 197 198 198 192 191 192 187 182 185 191 207 207 202 208 208 212 196 181 183 131 154 214 138 99 95 95 98 101 102 107 112 120 120 118 119 115 119 111 81 67 59 61 65 70 104 130 141 148 150 151 155 160 165
339 339 339 340 339 338 337 336 337 339 340 339 339 337 336 337 333 327 319 310 306 295 275 261 246 236 224 215 210 207 223 253 338 198 187 188 196 195 191 189 188 184 181 188 198 207 205 204 210 205 194 180 170 155 132 159 200 136 114 110 98 101 105 109 117 120 116 110 111 118 118 112 103 91 79 72 74 80 90 109 126 136 145 149 153 160 164 168
338 338 338 339 339 338 337 335 337 339 340 340 340 336 337 340 337 333 326 317 314 301 284 265 240 228 216 203 205 216 226 238 256 209 184 187 193 194 192 188 186 184 185 197 203 200 204 205 199 202 202 165 150 147 147 157 152 119 118 119 111 106 110 116 121 117 110 110 113 113 107 94 97 98 85 82 88 93 103 116 126 135 144 150 157 161 165 169
336 337 337 338 338 338 337 336 337 338 340 341 340 337 338 341 340 338 334 336 328 310 295 269 239 223 212 197 209 227 222 223 225 195 191 192 192 193 192 188 184 183 190 197 201 201 207 203 193 213 187 128 151 153 163 171 124 116 128 129 123 115 118 122 119 113 109 110 114 113 109 104 108 104 87 89 101 106 113 121 128 138 144 150 156 160 165 169
334 336 336 337 337 338 338 337 336 338 340 340 340 338 339 342 342 339 339 349 345 331 312 271 235 215 207 195 209 223 214 221 222 211 207 196 192 192 190 189 184 184 191 190 196 202 204 192 173 183 143 131 159 154 180 183 120 126 131 126 123 119 121 123 117 111 106 109 114 113 111 113 124 121 101 107 113 116 120 124 132 139 144 150 153 157 164 167
333 334 335 336 337 338 339 337 336 337 338 340 340 338 340 343 342 338 340 352 360 2 0 301 212 199 196 193 208 215 203 216 216 217 209 193 191 189 186 189 185 186 189 184 189 180 172 165 157 169 160 149 142 127 129 126 126 133 129 123 124 121 122 128 123 114 111 113 113 114 113 114 117 107 114 125 127 125 124 128 135 137 141 148 150 156 164 167
332 333 334 336 336 337 338 337 336 336 337 339 340 339 340 344 341 335 336 348 9 26 39 59 142 174 178 194 218 220 184 198 202 205 195 186 188 185 186 190 184 185 187 182 179 162 148 154 171 204 156 152 146 123 120 129 135 140 135 129 130 129 127 135 132 122 125 125 121 127 121 107 101 104 120 133 134 133 130 131 135 136 139 145 149 154 161 169
331 332 333 334 335 336 337 338 337 335 336 337 339 338 339 343 339 330 330 339 5 28 48 68 95 147 165 199 220 211 174 183 183 179 178 177 178 180 188 187 174 176 181 179 171 153 147 153 173 166 118 144 131 119 132 145 148 150 149 141 144 145 138 146 147 133 138 134 124 177 122 97 108 120 130 140 142 141 137 137 139 140 142 146 151 153 159 169
329 330 332 333 333 334 337 338 337 334 335 336 337 337 339 343 337 325 321 325 344 8 38 69 67 141 183 212 201 192 166 168 168 164 169 170 168 173 181 173 166 170 166 168 164 149 140 137 145 142 119 95 122 128 135 153 161 159 162 160 167 169 145 156 162 155 157 135 132 266 94 98 120 130 137 146 150 149 142 143 146 146 148 150 153 156 158 167
327 329 330 332 331 332 336 337 336 335 333 334 335 335 338 340 335 323 308 305 309 331 312 252 23 150 226 216 181 187 160 158 162 160 165 164 163 166 166 162 166 167 161 165 163 147 139 133 145 150 126 120 145 152 144 159 171 166 180 176 178 181 150 160 172 177 174 127 181 279 82 104 124 134 141 151 157 158 149 147 151 153 156 157 159 162 161 167
324 326 328 331 330 330 333 336 336 334 332 333 332 333 336 337 334 320 300 286 281 303 290 249 291 281 262 183 167 185 165 165 165 160 164 161 163 167 161 158 164 166 165 170 159 141 139 134 138 140 139 150 165 167 156 167 179 185 205 182 171 187 163 163 179 184 192 152 179 276 89 114 130 139 143 152 161 164 157 152 156 158 161 165 167 170 169 173
321 324 327 329 328 327 331 334 335 333 330 330 329 331 335 336 330 315 290 255 266 280 240 260 281 283 274 160 166 184 173 174 166 158 163 161 162 166 161 157 161 161 160 166 155 143 146 149 149 146 165 185 178 174 179 185 180 192 217 189 173 186 171 164 175 178 191 198 178 200 129 110 127 146 147 154 163 166 163 158 162 162 165 174 176 177 180 181
318 321 324 328 327 325 327 331 335 332 329 328 328 329 334 339 334 317 274 225 249 261 253 243 227 261 224 180 180 178 170 171 165 159 161 162 161 161 162 160 159 158 160 165 163 168 174 173 180 180 183 194 188 189 200 194 183 191 206 191 177 186 184 177 166 172 185 198 195 195 153 121 134 149 151 156 164 170 168 163 165 165 168 176 182 186 186 187
315 318 321 325 325 323 323 328 333 330 328 326 327 329 334 344 340 328 139 288 244 241 268 197 196 247 117 167 173 168 169 167 164 165 162 161 160 161 165 163 161 166 170 171 176 186 190 184 196 200 182 189 197 205 216 207 190 193 199 192 182 186 195 189 163 169 186 200 210 207 166 143 149 151 154 158 162 173 172 165 168 169 171 178 185 189 185 187
313 314 317 322 323 321 319 324 330 329 326 322 327 331 333 343 337 114 8 293 259 257 277 219 207 248 105 157 166 167 167 163 166 172 168 163 160 162 165 164 168 177 182 182 174 181 198 197 198 201 193 192 198 210 231 239 199 194 201 199 193 195 192 186 175 168 188 209 203 196 186 158 156 153 157 159 161 176 178 170 174 174 175 179 183 185 184 186
312 311 313 318 320 319 316 319 325 327 323 317 325 328 327 346 339 335 329 289 261 257 258 235 221 237 212 166 169 170 166 168 177 178 173 167 165 166 166 170 177 183 192 189 162 163 205 212 203 203 201 191 196 208 222 236 210 202 206 205 206 211 189 174 181 172 186 216 193 185 202 169 160 156 156 163 167 175 180 178 180 178 179 182 184 185 186 188
311 310 310 313 317 317 313 314 318 322 319 308 314 317 305 334 332 328 323 287 275 259 244 233 223 230 215 180 174 175 174 178 179 178 175 172 176 178 171 178 189 182 183 186 165 168 200 216 208 200 183 139 170 198 207 213 211 208 206 209 213 201 157 156 179 176 180 214 197 186 204 170 158 159 159 173 175 171 179 184 184 182 182 185 188 188 189 191
310 309 308 309 313 314 310 311 312 317 315 297 297 295 278 306 331 336 315 281 284 255 232 224 219 220 203 187 178 177 185 184 177 177 176 175 184 186 176 184 195 182 178 190 192 187 198 213 202 178 151 159 175 188 206 214 214 216 208 211 213 177 177 192 182 179 184 214 220 194 203 173 159 170 170 180 180 169 176 184 189 192 192 192 192 192 193 194
310 308 306 307 310 311 308 308 308 312 311 294 293 283 271 296 334 344 305 273 280 237 222 215 212 213 194 186 179 180 190 188 180 177 176 179 184 185 185 193 196 185 185 196 200 201 196 178 158 151 165 186 188 185 202 213 208 217 219 226 230 186 208 228 172 168 183 207 221 200 201 191 180 189 183 181 184 178 180 185 193 201 204 203 199 199 199 198
310 308 306 305 307 307 306 309 305 299 304 303 301 283 269 299 334 345 298 269 255 204 211 204 201 204 187 179 178 182 188 188 186 178 177 184 183 178 187 196 201 193 189 194 200 205 174 126 133 158 177 191 196 195 203 216 208 204 215 231 256 239 231 218 159 165 194 203 205 204 214 211 194 200 193 180 186 189 187 191 198 201 204 210 209 207 205 202
310 309 306 304 306 305 306 309 287 288 307 305 300 281 269 307 332 340 286 268 233 166 169 183 186 182 176 173 173 180 188 186 185 177 178 188 186 185 186 188 209 209 187 187 202 212 141 126 155 175 180 190 202 202 196 212 224 198 192 214 248 255 224 185 169 187 219 206 192 205 230 232 195 203 200 189 191 194 194 200 203 200 201 208 211 210 206 201
310 310 305 303 306 305 304 297 275 289 302 290 289 281 283 310 333 19 265 254 218 153 147 163 174 170 171 170 169 179 182 160 163 172 179 187 184 193 204 183 200 207 175 178 200 201 154 159 175 184 190 194 205 205 186 209 236 182 106 165 203 216 196 183 191 206 213 176 180 202 224 242 228 213 200 195 197 198 198 204 207 204 203 206 209 210 206 201
310 310 304 300 302 304 301 291 282 287 277 267 280 276 290 308 231 192 264 257 190 139 147 149 159 165 163 167 174 183 141 145 158 176 180 186 181 194 214 192 192 178 164 186 188 156 167 179 177 182 194 196 199 175 157 194 236 64 85 130 154 189 188 189 201 202 181 194 207 202 209 240 244 213 191 198 203 207 208 207 207 207 206 205 207 208 207 203
310 310 303 297 297 298 293 285 283 278 257 251 265 277 293 285 216 218 255 260 168 149 158 151 155 165 161 168 182 193 150 156 169 165 171 186 188 200 223 193 191 170 172 210 214 137 161 187 184 191 198 178 115 93 118 172 179 111 114 116 117 142 163 188 212 195 193 222 228 203 198 241 252 202 184 203 213 214 212 210 208 206 206 206 206 207 207 204
308 308 302 295 295 295 289 282 274 257 234 215 249 291 290 247 228 227 217 225 197 146 147 158 159 165 168 171 185 195 182 172 156 153 169 186 188 205 237 186 191 172 175 216 229 126 131 134 188 212 203 121 100 85 78 91 126 139 135 122 121 127 137 184 214 195 217 228 230 202 195 231 262 230 192 203 221 224 217 211 208 206 206 206 205 205 205 203
307 305 299 294 293 291 287 283 274 241 208 200 246 293 263 227 234 238 206 161 243 153 154 176 165 163 174 179 183 189 189 174 154 160 174 182 184 200 203 178 194 188 180 198 186 141 147 157 166 167 125 123 113 97 89 115 141 155 155 152 147 134 159 186 173 198 236 230 203 185 201 224 249 259 236 211 217 227 228 217 207 205 207 205 204 204 203 202
306 301 295 291 288 282 274 269 260 225 204 202 223 234 236 227 229 234 199 133 181 175 171 183 173 172 182 184 182 183 184 173 167 171 176 181 183 191 193 185 183 185 185 184 172 163 168 159 139 134 153 158 140 119 115 141 165 179 177 178 183 174 185 204 193 207 239 223 131 144 213 229 247 256 260 263 241 222 226 229 217 208 206 203 201 202 201 199
306 301 294 287 282 276 265 250 235 225 220 211 206 214 236 246 228 217 208 185 137 151 176 182 182 182 184 186 182 179 182 174 174 178 180 186 187 186 199 203 191 195 195 183 177 172 165 143 144 150 164 184 179 165 162 168 186 197 191 194 208 199 201 222 215 223 245 214 128 128 204 247 262 250 248 267 273 235 222 226 226 215 210 206 201 199 199 198
307 304 297 288 280 271 255 237 227 224 215 199 205 217 231 247 237 207 220 214 104 137 183 176 186 184 188 194 179 173 182 172 175 182 180 187 193 188 198 206 207 218 205 185 188 184 178 167 171 170 162 184 193 190 184 182 190 201 201 207 224 225 225 235 229 236 247 201 138 141 195 243 261 202 165 205 27 267 221 219 222 218 214 211 205 200 198 197
307 305 300 292 280 265 242 224 218 212 200 196 211 220 224 238 237 219 218 202 152 186 174 170 194 190 190 196 177 177 194 179 178 188 185 190 198 191 192 194 205 223 208 185 188 191 199 177 160 143 146 181 188 177 187 193 191 190 202 220 234 244 231 248 312 295 288 273 190 183 219 245 263 237 173 181 176 195 207 213 218 218 214 212 209 205 200 196
310 309 305 293 266 250 234 216 210 201 195 204 218 216 224 238 248 254 245 71 116 210 183 186 198 198 190 189 182 185 203 199 184 190 193 197 202 197 196 189 193 211 214 191 170 186 213 160 138 129 135 182 192 162 175 216 194 165 202 214 186 355 258 232 271 288 280 275 238 192 236 241 246 248 204 195 236 231 213 212 215 218 215 210 211 209 203 197
315 315 313 288 240 241 230 212 205 195 196 216 228 218 228 241 263 292 327 328 288 284 253 205 192 205 197 188 190 188 191 190 185 191 194 196 203 202 199 191 189 204 215 216 201 194 212 161 143 163 156 150 178 156 151 235 235 190 207 179 117 42 268 244 249 213 228 258 240 192 245 249 233 227 174 181 230 236 217 215 214 213 212 210 210 208 203 197
320 319 315 267 239 246 224 209 201 192 198 224 230 223 230 231 245 281 301 297 281 258 258 229 188 207 207 195 190 186 186 184 181 192 195 187 192 197 198 194 189 203 216 224 223 195 211 193 146 174 168 138 166 176 160 166 215 268 232 152 159 225 208 199 242 256 253 271 270 207 230 252 239 218 156 185 233 255 222 208 209 209 208 209 207 201 198 193
324 319 294 244 259 248 212 202 190 188 201 225 223 219 222 224 236 261 278 284 274 255 255 250 207 214 221 215 194 182 186 188 180 191 201 188 179 187 200 201 192 200 212 220 219 189 212 221 161 161 163 151 170 197 200 182 178 254 237 172 202 252 228 196 228 270 278 280 286 243 210 235 222 172 98 237 263 280 235 201 206 212 209 208 204 196 192 189
324 307 246 275 287 237 195 185 177 186 208 224 228 216 196 213 230 247 262 273 270 264 264 276 242 211 215 228 216 184 188 198 192 195 201 186 175 179 197 205 197 194 201 213 218 196 199 227 202 147 150 170 187 200 215 204 182 196 212 198 197 207 243 245 224 249 273 278 288 276 260 270 117 117 216 262 254 258 240 214 213 214 210 205 200 195 191 188
313 271 220 325 300 162 159 172 177 195 214 223 240 228 189 206 228 236 248 261 266 264 271 287 282 253 219 222 224 191 189 203 201 201 197 185 194 202 188 196 195 179 181 203 213 202 194 213 203 162 169 201 199 185 221 255 201 199 207 208 204 196 210 238 222 205 232 265 278 282 282 295 95 130 206 245 242 232 226 229 220 210 208 202 196 194 191 189
300 254 196 352 158 144 150 189 188 202 218 221 248 230 186 205 234 244 251 248 255 252 254 269 269 263 243 224 223 195 192 201 199 202 202 192 206 208 167 177 188 179 185 202 202 199 200 212 214 198 187 187 147 122 60 331 247 220 221 223 219 206 213 237 242 196 189 236 261 274 280 282 112 131 181 201 262 258 245 257 244 215 203 197 195 194 191 191
303 293 302 294 180 170 199 222 184 201 224 215 303 242 213 217 223 230 234 237 251 245 243 256 252 248 240 237 245 203 196 201 202 206 208 202 203 172 140 166 185 186 197 204 190 178 182 214 220 210 168 128 108 110 134 198 233 227 223 229 235 227 227 245 267 183 203 226 230 249 266 262 107 113 149 149 229 257 247 256 256 234 206 194 194 193 191 192
304 295 274 274 208 197 222 226 190 209 217 207 240 229 217 235 242 239 239 240 255 259 259 264 255 252 255 264 262 216 201 199 201 206 215 207 186 98 133 171 190 198 202 204 175 167 183 210 210 208 195 180 175 174 177 185 212 225 222 221 230 234 234 237 163 176 234 241 238 257 276 272 116 126 172 161 197 231 232 238 248 242 224 202 195 192 190 189
305 277 224 245 220 204 225 284 263 224 208 211 230 224 211 219 215 247 271 258 265 281 279 279 283 285 274 257 241 212 212 228 202 195 203 197 162 110 150 183 209 215 207 197 148 174 190 205 199 212 213 200 205 209 202 197 203 222 226 216 214 219 220 218 210 221 235 230 225 245 272 291 122 147 177 175 195 224 233 241 240 233 232 218 201 195 191 189
307 276 191 194 185 201 230 286 284 257 226 212 216 213 223 219 170 128 255 241 236 282 274 273 288 282 249 227 219 198 201 228 225 187 194 192 161 129 158 195 216 222 205 123 178 187 199 204 201 220 229 220 224 216 205 211 209 211 215 209 207 213 215 218 232 239 219 193 218 227 247 274 270 223 231 243 243 251 252 255 249 230 224 217 204 201 195 193
292 328 5 218 181 199 211 216 250 260 239 216 213 195 223 231 214 180 196 208 291 305 272 253 264 273 243 223 224 201 190 203 209 200 202 194 149 130 144 187 205 209 199 199 203 198 206 209 206 219 231 235 245 203 196 218 224 218 215 211 208 209 210 215 229 231 185 209 247 214 202 254 271 276 292 298 278 276 276 271 268 252 228 216 208 204 200 198
311 3 10 345 276 214 194 170 311 285 214 212 228 205 222 230 229 204 171 209 246 340 281 220 204 290 312 296 263 210 182 193 203 199 197 191 166 156 154 155 173 183 191 202 201 200 224 218 206 215 223 225 227 200 203 224 233 230 225 215 205 202 205 215 224 221 210 245 267 171 164 243 271 286 297 300 292 285 283 282 285 276 249 226 211 206 204 200
353 4 17 344 328 355 359 347 318 276 213 213 212 199 235 230 192 78 27 259 214 75 338 248 167 358 334 322 300 233 176 201 206 178 107 213 202 190 180 164 154 173 187 191 186 199 241 219 195 215 222 207 191 202 211 222 228 231 229 214 202 201 204 213 225 224 227 251 267 255 220 256 278 289 294 295 292 285 284 286 282 273 261 237 219 213 209 203
12 358 356 318 292 346 344 326 288 243 199 211 215 176 214 236 64 60 42 326 271 72 10 335 4 357 333 308 316 356 59 7 296 57 9 291 211 208 208 189 142 174 188 188 177 184 218 217 183 209 215 194 182 192 201 215 219 216 217 206 197 200 202 212 226 220 218 242 259 265 267 270 276 282 280 281 285 278 272 272 270 271 269 248 232 224 215 209
25 4 354 313 282 350 325 305 278 243 196 183 218 158 147 92 38 27 114 38 17 39 23 356 352 346 314 126 64 43 27 352 321 329 331 297 294 333 276 325 357 199 187 183 182 186 201 206 171 202 218 196 177 189 191 201 209 205 200 193 191 197 202 212 219 208 217 238 245 254 264 269 283 296 291 288 289 276 264 263 263 270 276 261 246 237 226 217
21 2 354 312 271 23 322 252 224 242 204 72 33 36 38 45 28 337 230 136 57 38 21 357 343 324 196 116 48 4 340 320 303 302 302 286 287 295 280 290 309 290 209 186 191 191 199 200 181 207 227 192 169 190 189 189 209 214 201 195 197 203 211 215 214 209 221 240 247 254 266 290 320 315 293 288 289 283 276 270 264 272 277 265 252 242 234 223